Location: Unspecified
(0.0000°N, 0.0000°E)
Time: 15:58:02
(UTC+00:00)

ATLAS 5 CENTAUR DEB - Pass Details

Date: 09 March 2026
Orbit: 8253 x 35273 km, 19.8° (Epoch: 17 April)

Event Time Altitude Azimuth Distance (km) Brightness Sun altitude
Rises 18:50:57 0° 256° (WSW) 19,667 ? -10.1°
Reaches altitude 10° 19:11:05 10° 252° (WSW) 21,176 ? -15.1°
Enters shadow 03:33:26 18° 271° (W) 30,633 ? -39.1°
Exits shadow 04:42:41 21° 281° (W) 23,158 ? -21.9°
Maximum altitude 06:17:46 58° 3° (N) 9,662 ? 1.9°
Drops below altitude 10° 07:04:15 10° 87° (E) 13,008 ? 13.4°
Sets 07:16:12 0° 92° (E) 15,133 ? 16.4°
